QPF
0.00 0.00 0.00 0.00 0.01 0.01 0.01 0.01 0.01 0.01 0.02 0.02 0.01 0.03 0.08 0.09 0.11 0.07 0.05 0.04 0.04 0.05 0.07 0.05 0.05 0.04 0.03 0.03 0.04 0.04 0.04 0.06 0.07 0.08 0.10 0.13 0.14 0.15 0.13 0.11 0.10 0.11 0.12 0.11
0.00 0.00 0.00 0.00 0.00 0.00 0.01 0.01 0.01 0.01 0.01 0.02 0.02 0.03 0.07 0.07 0.08 0.09 0.09 0.07 0.08 0.09 0.11 0.08 0.05 0.03 0.03 0.03 0.04 0.05 0.07 0.07 0.09 0.12 0.12 0.12 0.12 0.15 0.14 0.11 0.10 0.11 0.11 0.10
0.00 0.00 0.00 0.00 0.00 0.00 0.01 0.01 0.01 0.01 0.01 0.02 0.02 0.03 0.07 0.10 0.14 0.12 0.11 0.07 0.07 0.09 0.10 0.08 0.04 0.02 0.02 0.03 0.06 0.08 0.09 0.09 0.10 0.12 0.14 0.13 0.12 0.18 0.17 0.14 0.11 0.12 0.10 0.08
0.00 0.00 0.00 0.00 0.00 0.00 0.01 0.02 0.03 0.04 0.03 0.03 0.03 0.05 0.07 0.10 0.11 0.12 0.11 0.14 0.11 0.10 0.14 0.11 0.05 0.03 0.04 0.07 0.09 0.10 0.08 0.07 0.08 0.09 0.12 0.13 0.14 0.18 0.19 0.18 0.17 0.15 0.13 0.10
0.00 0.00 0.00 0.00 0.00 0.00 0.01 0.03 0.04 0.06 0.07 0.05 0.06 0.07 0.10 0.13 0.12 0.12 0.11 0.14 0.19 0.19 0.22 0.14 0.09 0.07 0.08 0.09 0.10 0.10 0.08 0.08 0.09 0.11 0.14 0.16 0.18 0.20 0.22 0.22 0.19 0.15 0.12 0.09
0.01 0.01 0.00 0.00 0.00 0.00 0.01 0.05 0.05 0.04 0.07 0.07 0.06 0.08 0.13 0.23 0.20 0.19 0.21 0.22 0.27 0.26 0.23 0.17 0.14 0.15 0.12 0.11 0.11 0.11 0.10 0.10 0.12 0.15 0.17 0.19 0.19 0.20 0.21 0.19 0.15 0.11 0.10 0.08
0.01 0.01 0.01 0.01 0.00 0.01 0.03 0.07 0.06 0.06 0.07 0.07 0.07 0.09 0.12 0.17 0.25 0.23 0.28 0.33 0.30 0.28 0.27 0.23 0.18 0.16 0.15 0.14 0.13 0.13 0.14 0.16 0.17 0.16 0.17 0.18 0.17 0.15 0.13 0.11 0.10 0.09 0.07 0.07
0.02 0.02 0.02 0.02 0.02 0.03 0.05 0.05 0.04 0.04 0.05 0.05 0.06 0.13 0.12 0.15 0.25 0.33 0.34 0.36 0.32 0.24 0.19 0.16 0.16 0.16 0.17 0.17 0.14 0.15 0.17 0.18 0.18 0.15 0.14 0.14 0.15 0.14 0.11 0.10 0.10 0.10 0.10 0.10
0.05 0.04 0.04 0.03 0.03 0.03 0.03 0.04 0.04 0.04 0.05 0.04 0.06 0.10 0.09 0.10 0.17 0.21 0.25 0.25 0.22 0.20 0.16 0.16 0.15 0.15 0.16 0.17 0.18 0.17 0.17 0.17 0.15 0.14 0.16 0.16 0.14 0.12 0.10 0.08 0.07 0.07 0.06 0.05
0.08 0.07 0.05 0.04 0.03 0.03 0.03 0.03 0.03 0.05 0.06 0.04 0.04 0.07 0.08 0.10 0.13 0.20 0.23 0.19 0.16 0.16 0.14 0.17 0.18 0.19 0.17 0.15 0.14 0.14 0.13 0.13 0.14 0.14 0.14 0.13 0.11 0.09 0.08 0.08 0.07 0.06 0.05 0.04
0.09 0.09 0.07 0.05 0.04 0.03 0.03 0.03 0.02 0.03 0.04 0.05 0.06 0.12 0.18 0.15 0.13 0.15 0.16 0.13 0.11 0.11 0.11 0.15 0.18 0.17 0.17 0.15 0.12 0.09 0.08 0.08 0.09 0.07 0.06 0.05 0.04 0.04 0.05 0.06 0.06 0.06 0.05 0.04
0.07 0.07 0.06 0.05 0.04 0.03 0.02 0.02 0.02 0.04 0.05 0.06 0.10 0.17 0.21 0.19 0.13 0.09 0.08 0.10 0.10 0.09 0.10 0.12 0.13 0.13 0.13 0.12 0.11 0.10 0.09 0.07 0.05 0.04 0.03 0.03 0.03 0.04 0.04 0.04 0.03 0.02 0.01 0.01
0.05 0.04 0.04 0.04 0.04 0.03 0.03 0.02 0.01 0.03 0.04 0.06 0.10 0.12 0.15 0.18 0.15 0.10 0.07 0.06 0.06 0.05 0.06 0.06 0.06 0.06 0.08 0.10 0.09 0.08 0.07 0.05 0.04 0.03 0.02 0.03 0.03 0.03 0.02 0.01 0.01 0.01 0.01 0.00
0.03 0.02 0.03 0.05 0.07 0.06 0.04 0.02 0.02 0.02 0.03 0.04 0.06 0.08 0.11 0.13 0.14 0.10 0.07 0.05 0.04 0.04 0.03 0.03 0.03 0.03 0.03 0.04 0.05 0.04 0.04 0.04 0.03 0.03 0.02 0.02 0.01 0.01 0.01 0.01 0.01 0.01 0.00 0.00
0.02 0.03 0.03 0.05 0.06 0.07 0.04 0.03 0.04 0.04 0.04 0.04 0.04 0.04 0.06 0.08 0.09 0.09 0.08 0.06 0.06 0.05 0.04 0.04 0.04 0.04 0.03 0.03 0.04 0.03 0.03 0.02 0.02 0.02 0.01 0.01 0.01 0.01 0.00 0.00 0.00 0.00 0.00 0.00
0.03 0.02 0.03 0.05 0.07 0.08 0.07 0.06 0.07 0.06 0.06 0.05 0.05 0.05 0.05 0.06 0.07 0.08 0.07 0.07 0.08 0.09 0.08 0.07 0.07 0.05 0.03 0.03 0.02 0.02 0.02 0.02 0.01 0.01 0.01 0.01 0.01 0.01 0.01 0.00 0.00 0.00 0.00 0.00
0.04 0.05 0.05 0.07 0.10 0.09 0.08 0.09 0.10 0.10 0.10 0.08 0.07 0.06 0.06 0.05 0.05 0.06 0.06 0.05 0.06 0.07 0.08 0.07 0.06 0.04 0.03 0.02 0.01 0.01 0.01 0.01 0.01 0.01 0.01 0.01 0.00 0.00 0.00 0.00 0.00 0.00 0.00 0.00
0.05 0.05 0.06 0.08 0.10 0.08 0.09 0.09 0.10 0.11 0.11 0.10 0.08 0.08 0.07 0.05 0.05 0.05 0.06 0.04 0.03 0.03 0.04 0.04 0.03 0.03 0.02 0.01 0.01 0.00 0.00 0.00 0.00 0.00 0.00 0.00 0.00 0.00 0.00 0.00 0.00 0.00 0.00 0.00
0.09 0.08 0.08 0.09 0.09 0.09 0.10 0.09 0.09 0.10 0.09 0.08 0.07 0.07 0.06 0.05 0.04 0.04 0.04 0.03 0.03 0.02 0.02 0.02 0.02 0.02 0.02 0.01 0.00 0.00 0.00 0.00 0.00 0.00 0.00 0.00 0.00 0.00 0.00 0.00 0.00 0.00 0.00 0.00
0.10 0.10 0.09 0.08 0.08 0.09 0.10 0.08 0.08 0.09 0.09 0.07 0.06 0.05 0.04 0.04 0.04 0.03 0.03 0.03 0.03 0.03 0.02 0.02 0.01 0.01 0.00 0.00 0.00 0.00 0.00 0.00 0.00 0.00 0.00 0.00 0.00 0.00 0.00 0.00 0.00 0.00 0.00 0.00
0.11 0.12 0.10 0.07 0.07 0.06 0.06 0.06 0.06 0.06 0.05 0.05 0.04 0.03 0.03 0.03 0.02 0.02 0.02 0.03 0.03 0.03 0.03 0.02 0.01 0.01 0.00 0.00 0.00 0.00 0.00 0.00 0.00 0.00 0.00 0.00 0.00 0.00 0.00 0.00 0.00 0.00 0.00 0.00
0.09 0.09 0.07 0.05 0.04 0.04 0.04 0.04 0.04 0.03 0.03 0.04 0.03 0.02 0.02 0.02 0.02 0.02 0.03 0.03 0.02 0.02 0.01 0.01 0.01 0.01 0.00 0.00 0.00 0.00 0.00 0.00 0.00 0.00 0.00 0.00 0.00 0.00 0.00 0.00 0.00 0.00 0.01 0.01
0.09 0.10 0.08 0.07 0.05 0.04 0.04 0.05 0.05 0.04 0.04 0.03 0.03 0.03 0.02 0.02 0.01 0.01 0.02 0.02 0.01 0.00 0.00 0.00 0.00 0.00 0.00 0.00 0.00 0.00 0.00 0.00 0.00 0.00 0.00 0.00 0.00 0.00 0.00 0.00 0.00 0.00 0.00 0.00
0.08 0.08 0.08 0.08 0.07 0.05 0.06 0.07 0.06 0.05 0.04 0.04 0.05 0.05 0.04 0.02 0.01 0.01 0.00 0.00 0.00 0.00 0.00 0.00 0.00 0.00 0.00 0.00 0.00 0.00 0.00 0.00 0.00 0.00 0.00 0.00 0.00 0.00 0.00 0.00 0.00 0.00 0.00 0.00
0.06 0.07 0.06 0.07 0.07 0.06 0.05 0.05 0.05 0.05 0.05 0.06 0.07 0.07 0.05 0.02 0.01 0.00 0.00 0.00 0.00 0.00 0.00 0.00 0.00 0.00 0.00 0.00 0.00 0.00 0.00 0.00 0.00 0.00 0.00 0.00 0.00 0.00 0.00 0.00 0.00 0.00 0.00 0.00
0.03 0.03 0.03 0.04 0.04 0.03 0.03 0.04 0.05 0.04 0.03 0.03 0.03 0.02 0.02 0.01 0.00 0.00 0.00 0.00 0.00 0.00 0.00 0.00 0.00 0.00 0.00 0.00 0.00 0.00 0.00 0.00 0.00 0.00 0.00 0.00 0.00 0.00 0.00 0.00 0.00 0.00 0.00 0.00
0.02 0.02 0.02 0.02 0.02 0.02 0.02 0.02 0.02 0.02 0.02 0.01 0.01 0.01 0.01 0.00 0.00 0.00 0.00 0.00 0.00 0.00 0.00 0.00 0.00 0.00 0.00 0.00 0.00 0.00 0.00 0.00 0.00 0.00 0.00 0.00 0.00 0.00 0.00 0.00 0.00 0.00 0.00 0.00
MSLP
1006.75 1006.90 1007.11 1007.41 1007.78 1008.19 1008.60 1008.94 1009.17 1009.26 1009.18 1008.96 1008.63 1008.24 1007.88 1007.58 1007.41 1007.37 1007.46 1007.65 1007.90 1008.17 1008.39 1008.54 1008.61 1008.60 1008.54 1008.47 1008.45 1008.50 1008.68 1009.00 1009.47 1010.09 1010.81 1011.62 1012.46 1013.29 1014.07 1014.76 1015.35 1015.82 1016.18 1016.43
1007.01 1007.08 1007.16 1007.28 1007.43 1007.61 1007.81 1007.99 1008.12 1008.19 1008.17 1008.07 1007.90 1007.69 1007.49 1007.33 1007.24 1007.24 1007.33 1007.50 1007.73 1007.99 1008.24 1008.46 1008.64 1008.78 1008.88 1008.97 1009.09 1009.27 1009.52 1009.88 1010.36 1010.94 1011.63 1012.38 1013.17 1013.95 1014.68 1015.34 1015.89 1016.33 1016.66 1016.88
1007.37 1007.35 1007.30 1007.24 1007.20 1007.19 1007.21 1007.26 1007.32 1007.38 1007.42 1007.42 1007.40 1007.34 1007.27 1007.21 1007.19 1007.20 1007.28 1007.42 1007.62 1007.85 1008.12 1008.40 1008.67 1008.93 1009.18 1009.42 1009.67 1009.96 1010.29 1010.69 1011.17 1011.74 1012.38 1013.08 1013.82 1014.56 1015.26 1015.89 1016.43 1016.86 1017.18 1017.40
1007.85 1007.72 1007.54 1007.33 1007.13 1006.96 1006.84 1006.79 1006.81 1006.87 1006.96 1007.05 1007.14 1007.20 1007.24 1007.25 1007.26 1007.28 1007.33 1007.42 1007.57 1007.78 1008.04 1008.34 1008.68 1009.03 1009.39 1009.76 1010.12 1010.50 1010.90 1011.34 1011.83 1012.38 1012.99 1013.66 1014.37 1015.08 1015.77 1016.40 1016.96 1017.41 1017.75 1017.99
1008.41 1008.17 1007.85 1007.51 1007.18 1006.89 1006.68 1006.57 1006.55 1006.62 1006.76 1006.93 1007.10 1007.25 1007.36 1007.42 1007.45 1007.45 1007.46 1007.50 1007.60 1007.76 1008.00 1008.31 1008.68 1009.09 1009.53 1009.97 1010.42 1010.87 1011.32 1011.80 1012.30 1012.86 1013.46 1014.12 1014.82 1015.53 1016.23 1016.89 1017.48 1017.97 1018.35 1018.64
1008.98 1008.62 1008.19 1007.74 1007.30 1006.93 1006.67 1006.52 1006.50 1006.59 1006.77 1007.00 1007.24 1007.45 1007.61 1007.70 1007.73 1007.72 1007.69 1007.68 1007.72 1007.83 1008.02 1008.31 1008.68 1009.12 1009.59 1010.09 1010.60 1011.10 1011.60 1012.11 1012.65 1013.22 1013.84 1014.51 1015.22 1015.95 1016.68 1017.37 1018.00 1018.54 1018.98 1019.32
1009.49 1009.01 1008.48 1007.95 1007.45 1007.04 1006.75 1006.59 1006.58 1006.71 1006.93 1007.20 1007.49 1007.75 1007.94 1008.05 1008.09 1008.06 1008.00 1007.94 1007.93 1007.98 1008.14 1008.39 1008.74 1009.17 1009.66 1010.19 1010.73 1011.27 1011.81 1012.37 1012.94 1013.54 1014.19 1014.89 1015.63 1016.39 1017.15 1017.88 1018.55 1019.13 1019.61 1019.99
1009.84 1009.27 1008.67 1008.09 1007.56 1007.14 1006.86 1006.73 1006.75 1006.91 1007.17 1007.49 1007.82 1008.11 1008.33 1008.46 1008.51 1008.47 1008.39 1008.31 1008.26 1008.27 1008.38 1008.60 1008.92 1009.33 1009.81 1010.34 1010.90 1011.47 1012.05 1012.65 1013.26 1013.91 1014.60 1015.33 1016.09 1016.88 1017.67 1018.42 1019.11 1019.72 1020.22 1020.62
1009.99 1009.35 1008.72 1008.12 1007.61 1007.21 1006.97 1006.88 1006.95 1007.15 1007.46 1007.82 1008.18 1008.51 1008.76 1008.92 1008.98 1008.96 1008.89 1008.79 1008.72 1008.71 1008.79 1008.97 1009.26 1009.64 1010.10 1010.63 1011.20 1011.79 1012.41 1013.04 1013.70 1014.39 1015.11 1015.87 1016.66 1017.45 1018.24 1018.98 1019.67 1020.27 1020.78 1021.17
1009.90 1009.25 1008.62 1008.05 1007.58 1007.24 1007.05 1007.02 1007.15 1007.41 1007.76 1008.16 1008.57 1008.93 1009.22 1009.42 1009.52 1009.53 1009.48 1009.41 1009.34 1009.33 1009.39 1009.55 1009.81 1010.17 1010.61 1011.12 1011.69 1012.29 1012.93 1013.59 1014.28 1015.00 1015.74 1016.52 1017.30 1018.08 1018.85 1019.56 1020.22 1020.79 1021.26 1021.63
1009.61 1008.98 1008.39 1007.88 1007.48 1007.22 1007.12 1007.17 1007.36 1007.67 1008.07 1008.52 1008.96 1009.37 1009.70 1009.95 1010.10 1010.17 1010.17 1010.14 1010.12 1010.13 1010.19 1010.34 1010.58 1010.91 1011.33 1011.82 1012.37 1012.97 1013.62 1014.29 1015.00 1015.73 1016.48 1017.24 1018.01 1018.76 1019.47 1020.14 1020.73 1021.25 1021.67 1022.01
1009.17 1008.60 1008.09 1007.66 1007.36 1007.20 1007.18 1007.31 1007.57 1007.94 1008.38 1008.87 1009.35 1009.80 1010.19 1010.50 1010.72 1010.86 1010.94 1010.98 1011.01 1011.06 1011.16 1011.31 1011.54 1011.85 1012.24 1012.70 1013.23 1013.81 1014.44 1015.11 1015.81 1016.53 1017.27 1018.00 1018.73 1019.43 1020.09 1020.69 1021.22 1021.67 1022.05 1022.34
1008.67 1008.19 1007.77 1007.45 1007.25 1007.19 1007.26 1007.47 1007.79 1008.21 1008.70 1009.22 1009.75 1010.24 1010.69 1011.06 1011.36 1011.59 1011.76 1011.88 1011.99 1012.09 1012.22 1012.39 1012.62 1012.91 1013.27 1013.70 1014.18 1014.73 1015.33 1015.97 1016.65 1017.35 1018.06 1018.76 1019.44 1020.09 1020.69 1021.23 1021.70 1022.10 1022.42 1022.69
1008.18 1007.80 1007.49 1007.28 1007.19 1007.22 1007.38 1007.66 1008.04 1008.50 1009.03 1009.58 1010.14 1010.69 1011.18 1011.63 1012.01 1012.32 1012.58 1012.80 1012.98 1013.14 1013.32 1013.51 1013.74 1014.01 1014.34 1014.72 1015.17 1015.67 1016.23 1016.83 1017.47 1018.14 1018.81 1019.48 1020.13 1020.73 1021.28 1021.77 1022.20 1022.55 1022.85 1023.09
1007.77 1007.49 1007.29 1007.19 1007.20 1007.33 1007.56 1007.90 1008.33 1008.84 1009.39 1009.97 1010.57 1011.15 1011.70 1012.20 1012.66 1013.05 1013.40 1013.69 1013.94 1014.17 1014.38 1014.59 1014.82 1015.07 1015.37 1015.71 1016.11 1016.57 1017.08 1017.65 1018.25 1018.89 1019.53 1020.17 1020.79 1021.36 1021.88 1022.35 1022.74 1023.08 1023.35 1023.57
1007.46 1007.30 1007.21 1007.21 1007.31 1007.52 1007.82 1008.22 1008.70 1009.23 1009.81 1010.42 1011.04 1011.65 1012.24 1012.80 1013.31 1013.78 1014.19 1014.55 1014.86 1015.13 1015.38 1015.60 1015.83 1016.06 1016.33 1016.63 1016.99 1017.41 1017.88 1018.41 1018.99 1019.59 1020.22 1020.84 1021.44 1022.01 1022.52 1022.97 1023.35 1023.67 1023.94 1024.15
1007.31 1007.24 1007.25 1007.34 1007.53 1007.81 1008.18 1008.63 1009.15 1009.72 1010.32 1010.96 1011.60 1012.23 1012.85 1013.44 1014.00 1014.51 1014.97 1015.37 1015.72 1016.02 1016.28 1016.52 1016.74 1016.96 1017.20 1017.48 1017.81 1018.19 1018.64 1019.14 1019.70 1020.29 1020.91 1021.53 1022.12 1022.68 1023.19 1023.64 1024.02 1024.34 1024.59 1024.79
1007.31 1007.33 1007.42 1007.60 1007.87 1008.22 1008.66 1009.16 1009.72 1010.32 1010.95 1011.61 1012.27 1012.92 1013.56 1014.17 1014.74 1015.27 1015.74 1016.16 1016.53 1016.84 1017.11 1017.34 1017.56 1017.77 1018.01 1018.27 1018.58 1018.95 1019.39 1019.88 1020.43 1021.02 1021.63 1022.24 1022.84 1023.39 1023.90 1024.34 1024.71 1025.02 1025.26 1025.44
1007.48 1007.59 1007.76 1008.02 1008.35 1008.77 1009.26 1009.82 1010.42 1011.06 1011.72 1012.40 1013.07 1013.73 1014.37 1014.98 1015.55 1016.07 1016.54 1016.95 1017.31 1017.61 1017.88 1018.11 1018.32 1018.53 1018.77 1019.03 1019.35 1019.72 1020.15 1020.65 1021.19 1021.78 1022.38 1022.99 1023.57 1024.12 1024.61 1025.03 1025.38 1025.66 1025.87 1026.02
1007.84 1008.01 1008.26 1008.58 1008.98 1009.46 1010.00 1010.60 1011.25 1011.93 1012.62 1013.31 1014.00 1014.66 1015.29 1015.88 1016.43 1016.92 1017.36 1017.75 1018.08 1018.36 1018.61 1018.84 1019.05 1019.27 1019.51 1019.79 1020.12 1020.51 1020.95 1021.45 1021.99 1022.57 1023.16 1023.74 1024.29 1024.80 1025.26 1025.64 1025.95 1026.19 1026.36 1026.47
1008.38 1008.61 1008.91 1009.29 1009.74 1010.27 1010.86 1011.50 1012.18 1012.89 1013.61 1014.31 1015.00 1015.66 1016.27 1016.83 1017.34 1017.79 1018.19 1018.53 1018.83 1019.09 1019.32 1019.54 1019.76 1019.99 1020.25 1020.55 1020.90 1021.31 1021.76 1022.26 1022.79 1023.34 1023.90 1024.44 1024.94 1025.40 1025.79 1026.12 1026.37 1026.56 1026.68 1026.74
1009.08 1009.37 1009.71 1010.13 1010.61 1011.17 1011.80 1012.47 1013.18 1013.90 1014.63 1015.35 1016.03 1016.67 1017.25 1017.78 1018.24 1018.64 1018.99 1019.29 1019.55 1019.78 1019.99 1020.20 1020.43 1020.68 1020.96 1021.29 1021.66 1022.08 1022.54 1023.03 1023.54 1024.05 1024.55 1025.02 1025.45 1025.83 1026.15 1026.41 1026.60 1026.72 1026.80 1026.82
1009.93 1010.25 1010.62 1011.05 1011.56 1012.14 1012.77 1013.46 1014.18 1014.91 1015.64 1016.34 1017.01 1017.62 1018.17 1018.66 1019.08 1019.43 1019.73 1019.98 1020.20 1020.40 1020.60 1020.82 1021.05 1021.32 1021.62 1021.97 1022.36 1022.79 1023.24 1023.70 1024.17 1024.62 1025.05 1025.44 1025.78 1026.07 1026.30 1026.48 1026.60 1026.67 1026.70 1026.70
1010.88 1011.21 1011.59 1012.03 1012.53 1013.11 1013.74 1014.41 1015.12 1015.84 1016.56 1017.25 1017.89 1018.47 1018.98 1019.43 1019.80 1020.11 1020.36 1020.58 1020.77 1020.95 1021.14 1021.35 1021.59 1021.88 1022.20 1022.56 1022.95 1023.37 1023.80 1024.22 1024.63 1025.02 1025.36 1025.65 1025.90 1026.09 1026.23 1026.33 1026.38 1026.41 1026.42 1026.41
1011.87 1012.20 1012.57 1013.00 1013.48 1014.03 1014.64 1015.29 1015.97 1016.67 1017.35 1018.01 1018.62 1019.17 1019.65 1020.05 1020.38 1020.65 1020.87 1021.06 1021.22 1021.39 1021.58 1021.79 1022.04 1022.33 1022.65 1023.02 1023.40 1023.80 1024.19 1024.56 1024.90 1025.20 1025.45 1025.65 1025.79 1025.89 1025.95 1025.98 1025.98 1025.98 1025.97 1025.97
1012.83 1013.15 1013.50 1013.90 1014.36 1014.88 1015.45 1016.06 1016.70 1017.36 1018.01 1018.63 1019.20 1019.71 1020.16 1020.53 1020.83 1021.07 1021.26 1021.43 1021.58 1021.73 1021.91 1022.12 1022.37 1022.65 1022.98 1023.32 1023.69 1024.05 1024.39 1024.70 1024.97 1025.18 1025.34 1025.44 1025.50 1025.51 1025.50 1025.47 1025.44 1025.42 1025.42 1025.43
1013.70 1014.00 1014.34 1014.71 1015.14 1015.61 1016.14 1016.71 1017.30 1017.92 1018.52 1019.10 1019.64 1020.12 1020.54 1020.88 1021.16 1021.38 1021.56 1021.70 1021.84 1021.99 1022.15 1022.35 1022.59 1022.86 1023.17 1023.49 1023.82 1024.13 1024.42 1024.66 1024.86 1024.99 1025.07 1025.09 1025.07 1025.02 1024.95 1024.88 1024.82 1024.79 1024.79 1024.82
Thickness
5742 5753 5758 5756 5756 5757 5750 5743 5733 5738 5741 5750 5760 5765 5767 5768 5767 5766 5763 5760 5759 5756 5752 5749 5745 5741 5739 5736 5734 5731 5728 5724 5722 5720 5718 5715 5713 5712 5710 5708 5706 5704 5702 5701
5732 5745 5748 5747 5753 5754 5752 5751 5745 5744 5741 5758 5763 5763 5762 5763 5763 5762 5761 5759 5757 5755 5751 5748 5745 5742 5740 5736 5733 5730 5727 5723 5721 5718 5715 5712 5710 5707 5705 5702 5700 5698 5696 5694
5707 5726 5731 5722 5741 5744 5742 5744 5744 5733 5740 5752 5752 5753 5754 5755 5758 5759 5759 5757 5755 5753 5751 5749 5746 5744 5740 5736 5733 5728 5724 5721 5718 5715 5711 5709 5707 5702 5699 5696 5693 5690 5687 5686
5695 5706 5695 5716 5746 5747 5737 5733 5739 5739 5742 5746 5747 5747 5748 5750 5751 5752 5753 5752 5750 5750 5747 5746 5744 5742 5739 5735 5730 5726 5722 5720 5716 5713 5709 5705 5701 5697 5693 5690 5686 5682 5679 5677
5678 5681 5693 5718 5733 5734 5724 5714 5728 5730 5734 5737 5740 5738 5736 5742 5745 5745 5746 5747 5745 5745 5744 5742 5739 5737 5734 5730 5726 5722 5719 5716 5713 5709 5704 5699 5695 5690 5686 5682 5677 5672 5669 5666
5675 5676 5675 5699 5724 5736 5725 5699 5719 5724 5724 5726 5728 5716 5720 5732 5736 5738 5739 5739 5737 5738 5737 5735 5734 5733 5729 5724 5721 5717 5714 5712 5708 5705 5700 5693 5688 5683 5678 5673 5667 5662 5657 5654
5668 5668 5679 5701 5719 5723 5694 5689 5712 5718 5719 5719 5716 5716 5720 5724 5725 5727 5729 5730 5730 5729 5726 5726 5727 5727 5721 5717 5713 5711 5709 5705 5701 5697 5693 5687 5680 5675 5669 5663 5657 5651 5646 5642
5659 5659 5667 5698 5704 5695 5690 5701 5707 5710 5711 5710 5711 5712 5712 5714 5714 5715 5717 5717 5719 5718 5715 5716 5718 5718 5712 5707 5705 5704 5701 5696 5691 5688 5684 5677 5671 5664 5659 5653 5646 5640 5635 5629
5656 5660 5675 5688 5691 5694 5696 5696 5699 5701 5704 5704 5702 5701 5701 5700 5701 5702 5704 5704 5704 5705 5704 5704 5705 5705 5701 5697 5695 5692 5687 5682 5678 5675 5670 5665 5659 5652 5646 5641 5636 5628 5623 5617
5653 5661 5669 5677 5682 5687 5690 5690 5694 5696 5696 5696 5694 5693 5691 5689 5688 5688 5690 5690 5690 5692 5691 5689 5688 5688 5687 5685 5684 5680 5673 5667 5663 5658 5652 5648 5644 5640 5636 5630 5624 5618 5611 5605
5645 5653 5660 5666 5670 5676 5680 5683 5684 5686 5688 5687 5685 5682 5680 5678 5676 5676 5676 5676 5678 5678 5677 5674 5673 5673 5672 5670 5669 5664 5658 5652 5646 5641 5636 5631 5626 5622 5620 5616 5613 5607 5599 5594
5638 5647 5649 5653 5662 5668 5670 5671 5673 5675 5674 5675 5675 5673 5670 5667 5664 5664 5663 5663 5663 5663 5662 5661 5660 5658 5657 5656 5654 5650 5643 5637 5633 5627 5623 5618 5613 5605 5601 5600 5596 5593 5588 5583
5640 5645 5647 5651 5655 5659 5661 5664 5666 5665 5664 5662 5662 5662 5659 5655 5652 5651 5650 5650 5649 5648 5648 5647 5646 5644 5642 5641 5640 5637 5631 5625 5620 5615 5610 5604 5600 5596 5587 5581 5579 5576 5573 5569
5637 5639 5640 5643 5645 5650 5653 5655 5655 5654 5653 5652 5650 5648 5647 5643 5640 5638 5637 5636 5636 5635 5634 5633 5632 5630 5628 5628 5626 5623 5618 5614 5609 5603 5598 5593 5588 5583 5579 5573 5566 5560 5557 5555
5630 5633 5635 5637 5639 5642 5644 5645 5643 5641 5640 5638 5637 5636 5634 5632 5628 5626 5624 5624 5623 5622 5620 5619 5618 5615 5615 5615 5613 5609 5606 5602 5597 5592 5587 5582 5577 5572 5566 5561 5555 5549 5544 5541
5625 5629 5630 5630 5632 5633 5634 5634 5633 5631 5629 5627 5625 5623 5621 5619 5617 5614 5611 5611 5611 5608 5607 5606 5605 5604 5604 5602 5600 5597 5594 5592 5587 5582 5576 5571 5566 5560 5555 5549 5544 5538 5533 5528
5619 5620 5621 5623 5625 5626 5626 5626 5625 5622 5620 5617 5615 5613 5611 5608 5605 5602 5600 5599 5599 5597 5595 5594 5593 5593 5593 5591 5589 5586 5583 5580 5577 5572 5566 5561 5556 5550 5544 5538 5532 5526 5520 5516
5617 5618 5620 5620 5621 5620 5619 5618 5616 5613 5610 5608 5606 5603 5601 5599 5596 5593 5590 5589 5588 5586 5585 5584 5584 5584 5582 5580 5578 5575 5571 5567 5564 5559 5555 5550 5544 5538 5532 5526 5520 5513 5507 5502
5613 5614 5615 5615 5614 5613 5611 5609 5606 5604 5601 5599 5597 5593 5591 5588 5587 5584 5582 5580 5578 5576 5574 5575 5575 5574 5572 5570 5568 5564 5560 5556 5551 5547 5542 5538 5532 5526 5520 5513 5507 5500 5494 5488
5608 5608 5608 5607 5606 5605 5603 5601 5598 5595 5593 5591 5588 5585 5582 5579 5578 5576 5573 5570 5568 5567 5567 5567 5566 5564 5562 5560 5558 5554 5550 5545 5540 5535 5530 5524 5519 5513 5507 5501 5495 5488 5482 5475
5600 5601 5601 5600 5599 5598 5597 5595 5593 5589 5586 5584 5581 5578 5575 5572 5570 5568 5566 5562 5560 5561 5560 5559 5556 5554 5552 5550 5547 5543 5539 5534 5528 5523 5518 5512 5506 5500 5494 5488 5482 5476 5470 5464
5594 5594 5594 5594 5593 5591 5590 5589 5586 5583 5580 5577 5574 5572 5568 5565 5563 5560 5558 5556 5554 5554 5552 5549 5547 5546 5544 5541 5537 5532 5528 5522 5516 5511 5506 5500 5494 5488 5481 5476 5470 5465 5459 5453
5589 5588 5588 5587 5586 5584 5583 5581 5579 5577 5574 5572 5569 5566 5563 5560 5558 5555 5550 5548 5547 5546 5544 5541 5540 5538 5535 5530 5526 5521 5516 5511 5506 5500 5495 5489 5483 5477 5471 5466 5460 5455 5450 5445
5582 5582 5581 5581 5580 5578 5575 5573 5572 5570 5568 5566 5563 5561 5558 5554 5549 5547 5546 5543 5541 5539 5535 5533 5531 5528 5525 5520 5515 5510 5505 5500 5495 5490 5484 5479 5473 5468 5462 5457 5452 5447 5443 5438
5577 5577 5576 5575 5573 5571 5569 5568 5566 5563 5561 5558 5556 5553 5551 5548 5545 5541 5538 5536 5533 5530 5526 5524 5522 5518 5514 5509 5504 5500 5495 5491 5486 5480 5475 5470 5464 5459 5454 5449 5445 5441 5436 5431
5572 5571 5571 5570 5569 5567 5565 5563 5560 5557 5554 5551 5548 5546 5543 5541 5538 5534 5531 5528 5525 5521 5517 5514 5511 5508 5504 5499 5495 5491 5486 5482 5477 5472 5467 5462 5457 5452 5447 5443 5439 5435 5430 5426
5567 5566 5565 5563 5562 5561 5559 5557 5554 5550 5548 5545 5541 5539 5537 5533 5530 5526 5523 5519 5515 5512 5509 5506 5502 5499 5495 5491 5487 5482 5478 5474 5469 5464 5460 5455 5451 5447 5442 5438 5434 5430 5426 5422